CZ-4C DEB, 38658

Orbit data source: Space-Track

CZ-4C DEB, 38658 is space debris in SSO originally from a launch on Tue, 15 Dec 2009 UTC launched from the Taiyaun Space Center, China (TSC). Debris objects in space refer to the collection of defunct objects orbiting the Earth. Examples of debris include non-operational satellites, rocket bodies, and fragments generated from explosions, collisions, or faulty payload assembly.

Loading next visibility...
Identifier
38658, 2009-072F
Orbit
SSO
Last TLE update
23 hours ago
Origin
Manufacturer
Unknown
Mission
Spacecraft
Bus & Motor
Unknown
Mass
Unknown
Launch date (UTC)
2009-12-15 (15 years ago)
Launch vehicle
Unknown
Launch site
Taiyaun Space Center, China (TSC)
Object type
Payload
Rocket body
Debris
Shape & HBR
Unknown
Radar Cross Section
Small (<0.1 m²)

Expand to show TLE details & history

TLE from 23 hours ago
0 CZ-4C DEB
1 38658U 09072F   25130.61649630 -.00000311  00000-0 -78208-3 0  9999
2 38658 100.5844  57.0128 0134888 257.4189 226.3457 13.05352595725398
Epoch: 2025-05-10T14:47Z
Definitive object data (Epoch: 2025-05-10T14:47:45.28Z)
Latitude
55.94469°
Longitude
162.38536°
Altitude
1,322.041 km
Speed
7.167 km/s
True Right ascension
16h 51m 55s
True Declination
55° 47' 48"
Sunlit
Object was in daylight at TLE epoch
Visualization TLE readout
Latitude
-20.369°
Longitude
-28.67608°
Altitude
1,236.951 km
Speed
7.241 km/s
Apparent Right ascension
06h 28m 02s
Apparent Declination
-38° 13' 30"
Sunlit
Object is in daylight
Visualization observer readout
Local Sidereal Time
22:15:46
Azimuth
106.862° ESE
Elevation
-46.532°
Doppler factor
1
Orbital elements
Apogee altitude
1,341.338 km
Perigee altitude
1,135.857 km
Semi-major axis
7,616.734 km
Eccentricity
0.0134888
Inclination
100.5844°
RAAN
57.0128°
Arg. of periapsis
257.4189°
True anomaly
225.2403°
Mean anomaly
226.3457°
Eccentric anomaly
225.79171°
Mean motion
3.26505 °/min
BSTAR
-0.00078208
Orbital period
110.26 mins
Loading maneuver chart data...
Loading SW <> Apogee altitude chart data...
Loading historical data...
Loading historical data...
Loading historical data...
Loading historical data...
Loading historical data...
Loading historical data...
Loading historical data...

CZ-4C DEB Visibility forecast

Observer location: undefined°, undefined°

Span
Click to sort rows by Start time (UTC) header in descending order
Start Az.
Max El. time (UTC)
Max El. Az.
Max El.
End time (UTC)
End Az.
13 mins2025-05-11 17:52:49.366Z124.905° SE2025-05-11 17:58:49.366Z64.053° ENE32.602°2025-05-11 18:05:49.366Z358.548° N
12 mins2025-05-11 19:41:49.366Z196.978° SSW2025-05-11 19:46:49.366Z252.44° W34.837°2025-05-11 19:53:49.366Z328.967° NNW
12 mins2025-05-12 07:15:49.366Z33.294° NE2025-05-12 07:21:49.366Z102.588° ESE34.934°2025-05-12 07:27:49.366Z167.124° S
11 mins2025-05-12 09:04:49.366Z354.481° N2025-05-12 09:09:49.366Z300.735° NW31.772°2025-05-12 09:15:49.366Z236.525° WSW
|